• Join FlightAware (Why Join?)
  • Login
  • US Flag 
08:47PM EDT


 

Airport Tracker/Info


-or-


 

Live Flight TrackerFlight Track Log ✈ EMD27 ✈ 29-Apr-2013 ✈ KAGS - KBYL

Flight Track Log - Related Links

Times and Time Zones

All times are in EDT time to prevent confusion due to time zone crossing. See the EMD27 flight status page for this flight to view local times or setup timezone preferences in your user account.

Time Position Orientation Groundspeed Altitude Reporting Facility
EDT Latitude Longitude Course Direction KTS MPH feet Rate Location/Type
03:04PM 33.5256 -82.0503 328° Northwest 156 180 4,500  Level Atlanta Center
03:05PM 33.5678 -82.0792 330° Northwest 156 180 5,400 900 Climbing Atlanta Center
03:06PM 33.6119 -82.1031 336° Northwest 162 186 6,400 1,080 Climbing Atlanta Center
03:07PM 33.6613 -82.1353 331° Northwest  Level FlightAware Approximate
03:07PM 33.6564 -82.1297 333° Northwest 167 192 7,600  Level Atlanta Center
03:08PM 33.6992 -82.1720 345° North  Level FlightAware Approximate
03:08PM 33.6983 -82.1561 332° Northwest 167 192 8,600  Level Atlanta Center
03:09PM 33.7505 -82.1962 328° Northwest  Level FlightAware Approximate
03:09PM 33.7406 -82.1828 332° Northwest 167 192 9,600  Level Atlanta Center
03:10PM 33.7806 -82.2069 333° Northwest 167 192 10,600 1,080 Climbing Atlanta Center
03:11PM 33.8269 -82.2383 331° Northwest 167 192 11,800 660 Climbing Atlanta Center
03:12PM 33.8753 -82.2672 334° Northwest 172 198 12,000 60 Climbing Atlanta Center
03:13PM 33.9239 -82.3014 330° Northwest 197 227 12,000  Level Atlanta Center
03:14PM 33.9786 -82.3378 331° Northwest 214 246 12,000  Level Atlanta Center
03:15PM 34.0375 -82.3742 333° Northwest 228 262 12,000  Level Atlanta Center
03:16PM 34.0922 -82.4108 331° Northwest 228 262 12,000  Level Atlanta Center
03:17PM 34.1511 -82.4450 334° Northwest 222 255 12,000  Level Atlanta Center
03:18PM 34.2081 -82.4814 332° Northwest 222 255 12,000  Level Atlanta Center
03:19PM 34.2650 -82.5181 332° Northwest 222 255 12,000  Level Atlanta Center
03:20PM 34.3194 -82.5547 331° Northwest 222 255 12,000  Level Atlanta Center
03:21PM 34.3742 -82.5892 333° Northwest 222 255 12,000  Level Atlanta Center
03:22PM 34.4331 -82.6258 333° Northwest 235 270 12,000  Level Atlanta Center
03:23PM 34.4858 -82.6628 330° Northwest 220 253 12,000  Level Atlanta Center
03:24PM 34.5572 -82.7044 334° Northwest 277 319 12,000  Level Atlanta Center
03:25PM 34.5992 -82.7342 330° Northwest 246 283 12,000  Level Atlanta Center
03:26PM 34.6558 -82.7711 332° Northwest 213 245 12,000  Level Atlanta Center
03:27PM 34.7022 -82.8008 332° Northwest 208 239 12,000  Level Atlanta Center
03:28PM 34.7567 -82.8378 331° Northwest 208 239 12,000  Level Atlanta Center
03:29PM 34.8114 -82.8725 332° Northwest 213 245 12,000  Level Atlanta Center
03:30PM 34.8700 -82.9097 332° Northwest 213 245 12,000  Level Atlanta Center
03:31PM 34.9206 -82.9419 332° Northwest 220 253 12,100  Climbing Atlanta Center
03:32PM 34.9750 -82.9792 331° Northwest 226 260 12,100 -60 Level Atlanta Center
03:33PM 35.0297 -83.0192 329° Northwest 226 260 12,000 -60 Descending Atlanta Center
03:34PM 35.0842 -83.0514 334° Northwest 226 260 12,000  Level Atlanta Center
03:35PM 35.1367 -83.0864 331° Northwest 226 260 12,000  Level Atlanta Center
03:36PM 35.1911 -83.1239 331° Northwest 226 260 12,000  Level Atlanta Center
03:37PM 35.2497 -83.1561 336° Northwest 219 252 12,000  Level Atlanta Center
03:38PM 35.3003 -83.1914 330° Northwest 219 252 12,100 240 Climbing Atlanta Center
03:39PM 35.3608 -83.2339 330° Northwest 219 252 12,500 600 Climbing Atlanta Center
03:40PM 35.4111 -83.2667 332° Northwest 219 252 13,300 660 Climbing Atlanta Center
03:41PM 35.4572 -83.2994 330° Northwest 206 237 13,900 300 Climbing Atlanta Center
03:42PM 35.5097 -83.3294 335° Northwest 201 231 14,000  Climbing Atlanta Center
03:43PM 35.5619 -83.3672 330° Northwest 209 241 14,000  Level Atlanta Center
03:44PM 35.6186 -83.4053 331° Northwest 215 247 14,000  Level Atlanta Center
03:45PM 35.6731 -83.4406 332° Northwest 220 253 14,000  Level Atlanta Center
03:46PM 35.7275 -83.4786 330° Northwest 220 253 14,000  Level Atlanta Center
03:47PM 35.7797 -83.5139 331° Northwest 220 253 14,000  Level Atlanta Center
03:48PM 35.8342 -83.5494 332° Northwest 220 253 14,000  Level Atlanta Center
03:49PM 35.8886 -83.5850 332° Northwest 220 253 14,000  Level Atlanta Center
03:50PM 35.9428 -83.6233 330° Northwest 220 253 14,000  Level Atlanta Center
03:51PM 35.9972 -83.6589 332° Northwest 220 253 14,000  Level Atlanta Center
03:52PM 36.0517 -83.6944 332° Northwest 220 253 14,000  Level Atlanta Center
03:53PM 36.1081 -83.7303 333° Northwest 220 253 14,000  Level Atlanta Center
03:54PM 36.1603 -83.7686 329° Northwest 220 253 14,000  Level Atlanta Center
03:55PM 36.2167 -83.8072 331° Northwest 220 253 14,000  Level Atlanta Center
03:56PM 36.2708 -83.8431 332° Northwest 220 253 14,000 -660 Level Atlanta Center
03:59PM 36.4100 -83.9353 332° Northwest 243 280 11,900 -900 Descending Indianapolis Center
04:00PM 36.4697 -83.9767 331° Northwest 245 282 11,000 -900 Descending Indianapolis Center
04:01PM 36.5303 -84.0186 331° Northwest 249 287 10,100 -1,080 Descending Indianapolis Center
04:02PM 36.5911 -84.0592 332° Northwest 249 287 8,800 -1,260 Descending Indianapolis Center
04:03PM 36.6492 -84.0986 331° Northwest 242 278 7,500 -1,680 Descending Indianapolis Center
04:04PM 36.7142 -84.1439 331° Northwest 233 268 5,400 -1,980 Descending Indianapolis Center
04:05PM 36.7683 -84.1811 331° Northwest 226 260 3,500 -1,500 Descending Indianapolis Center
04:06PM 36.8150 -84.2172 328° Northwest 211 243 2,300 -1,200 Descending Indianapolis Center